TEMPSAT 1

Last updated on Wed Aug 19 2026 00:03:44 GMT+0000 (Coordinated Universal Time)

1 01512U 65065E 26230.49941108 .00000030 00000+0 41211-4 0 9995 2 01512 90.0007 212.5981 0071692 74.1159 49.7732 13.33597054968350
UTC large
Height (km)
Speed (km/s)
/
Latitude / Longitude
Inclination (degrees)
Orbital Period (minutes)
Azimuth
Elevation
Range (km)
Doppler Factor

Next 0 passes for location: London (51.5072 / 0.1276)

No passes found over London.